Location: Kerentrech
(47.7567°N, 3.3595°W)
Time: 09:13:15
(UTC+00:00)

STARLINK-1176 - Pass Details

Date: 17 February 2020
Orbit: 379 x 380 km, 53.0° (Epoch: 28 March)

Event Time Altitude Azimuth Distance (km) Brightness Sun altitude
Exits shadow 04:53:19 22° 40° (NE) 917 5.2 -24.7°
Drops below altitude 10° 04:54:46 10° 57° (ENE) 1,412 6.6 -24.5°
Enters shadow 05:49:19 -72° 265° (W) 12,520 10.5 -15.4°
Maximum altitude 06:28:12 34° 10° (N) 666 4.1 -8.8°
